Temperature
6 6 6 6 6 6 6 5 5 6 6 7 7 6 8 9 9 8 8 8 8 8 8 7 7 7 6 6 6 6 6 6 6 6 5 5 5 5 5 4 4 4 4 4
5 6 6 6 6 6 6 6 5 6 6 6 7 8 8 8 8 8 8 8 8 7 7 7 7 6 6 6 6 5 5 5 5 5 5 5 5 5 4 4 4 4 4 4
4 4 5 5 6 5 5 5 5 6 6 6 6 7 7 8 8 8 8 8 7 7 7 6 6 6 6 6 5 5 5 5 5 5 4 4 4 4 4 4 3 3 3 3
3 5 6 7 7 6 6 6 5 6 6 6 7 8 8 8 8 8 7 7 7 7 6 6 6 6 5 5 5 5 5 4 4 4 4 4 4 4 4 3 3 3 3 3
3 4 5 6 7 6 6 6 6 5 5 7 7 7 7 7 7 7 7 7 6 6 6 6 5 5 5 5 5 4 4 4 4 4 4 4 4 4 3 3 3 3 3 2
3 5 6 8 7 7 7 6 6 6 5 6 6 4 5 7 7 6 6 6 6 5 5 5 5 5 5 4 4 4 4 4 4 4 3 3 3 3 3 3 2 2 2 2
3 4 4 6 7 7 6 7 7 7 7 6 5 6 7 6 6 6 6 5 5 5 5 5 4 4 4 4 4 4 4 4 3 3 3 3 3 3 2 2 2 2 2 2
2 3 5 6 5 5 6 7 7 7 7 7 7 6 6 6 5 5 5 5 5 5 4 4 4 4 4 4 4 3 3 3 3 3 3 3 2 2 2 2 2 2 1 1
3 5 6 7 7 8 8 7 7 7 7 6 6 5 5 5 5 5 5 4 4 4 4 4 4 4 3 3 3 3 3 3 3 3 2 2 2 2 2 1 1 1 1 1
3 4 5 7 7 7 7 7 7 7 6 6 5 5 5 5 5 4 4 4 4 4 4 4 3 3 3 3 3 3 3 2 2 2 2 2 2 1 1 1 1 1 1 0
3 4 5 6 7 7 7 6 6 6 5 5 5 5 4 4 4 4 4 4 3 3 3 3 3 3 3 3 2 2 2 2 2 2 1 1 1 1 1 1 0 0 -0 -0
4 5 4 6 7 7 6 6 6 5 5 5 4 4 4 4 4 4 3 3 3 3 3 3 3 3 3 2 2 2 2 2 2 1 1 1 1 1 1 0 -0 -0 -1 -1
7 7 6 6 6 6 6 6 5 5 5 4 4 4 4 3 3 3 3 3 3 3 3 3 3 3 3 2 2 2 2 1 1 1 0 0 0 -0 -0 0 -0 -1 -1 -1
6 6 5 5 5 5 5 5 4 4 4 4 4 3 3 3 3 3 3 3 3 3 3 2 2 2 2 2 2 2 1 1 1 0 0 -0 -0 -1 -1 -1 -1 -1 -1 -2
5 5 5 5 5 4 4 4 4 4 4 3 3 3 3 3 3 3 3 2 2 2 2 2 2 2 2 2 1 1 1 1 0 -0 -0 -0 -1 -1 -1 -1 -2 -2 -2 -2
4 4 4 4 4 4 4 3 3 3 3 3 3 3 3 3 3 3 2 2 2 2 2 2 2 2 1 1 1 1 0 0 -0 -1 -1 -1 -1 -1 -2 -2 -2 -2 -2 -2
3 3 3 3 3 3 3 3 3 3 3 3 3 3 3 2 2 2 2 2 2 2 2 2 1 1 1 1 0 0 -0 -0 -1 -1 -1 -2 -2 -2 -2 -2 -2 -2 -2 -3
3 3 3 3 3 3 3 3 3 3 2 2 2 2 2 2 2 2 2 2 2 2 2 1 1 1 0 0 -0 -1 -1 -1 -1 -2 -2 -2 -2 -2 -2 -3 -3 -3 -3 -3
3 3 3 3 3 3 3 2 2 2 2 2 2 2 2 2 2 2 1 1 1 1 1 1 0 0 -0 -0 -1 -1 -1 -2 -2 -2 -2 -2 -3 -3 -3 -3 -3 -3 -3 -3
3 2 2 2 2 2 2 2 2 2 2 2 1 1 1 1 1 1 1 1 1 0 0 -0 -0 -0 -1 -1 -1 -1 -2 -2 -2 -3 -3 -3 -3 -3 -3 -3 -3 -3 -4 -4
2 2 2 2 2 2 2 2 1 1 1 1 1 1 1 1 1 0 0 0 1 0 -0 -1 -1 -1 -1 -1 -2 -2 -2 -2 -3 -3 -3 -3 -3 -3 -3 -3 -4 -4 -4 -4
2 2 1 1 1 1 1 1 1 1 1 1 1 0 0 0 0 -0 -0 -0 -0 -1 -1 -1 -1 -2 -2 -2 -2 -2 -3 -3 -3 -3 -3 -3 -3 -3 -4 -4 -4 -4 -5 -5
1 1 1 1 1 1 1 1 0 0 0 0 0 -0 -0 -0 -1 -1 -1 -1 -1 -1 -1 -2 -2 -2 -2 -2 -3 -3 -3 -3 -3 -3 -4 -4 -4 -4 -4 -4 -4 -5 -5 -5
1 1 0 0 0 0 0 0 0 -0 -0 -0 -0 -0 -1 -1 -1 -1 -1 -1 -1 -2 -2 -2 -2 -2 -3 -3 -3 -3 -4 -4 -4 -4 -4 -4 -4 -4 -4 -4 -5 -5 -5 -6
-0 -0 -0 -0 -0 -0 -0 -0 -1 -1 -1 -1 -1 -1 -1 -1 -2 -1 -2 -2 -2 -2 -2 -2 -3 -3 -3 -3 -4 -4 -4 -4 -4 -4 -4 -4 -5 -5 -5 -5 -5 -5 -6 -6
-1 -1 -1 -1 -1 -1 -1 -1 -1 -1 -1 -1 -1 -1 -1 -2 -2 -2 -2 -2 -2 -3 -3 -3 -3 -3 -4 -4 -4 -4 -4 -5 -5 -5 -5 -5 -5 -5 -5 -5 -5 -6 -6 -6
-1 -1 -1 -1 -1 -1 -1 -2 -2 -2 -2 -2 -2 -2 -2 -2 -2 -2 -3 -3 -3 -3 -3 -3 -3 -4 -4 -4 -4 -4 -5 -5 -5 -5 -5 -5 -5 -5 -5 -6 -6 -6 -6 -6
Wind_Speed
5 5 4 7 8 7 9 9 8 8 7 9 7 7 6 5 4 4 4 4 4 4 4 4 4 4 4 4 4 4 4 4 6 6 5 5 5 5 5 5 5 5 5 5
4 4 4 7 10 10 10 9 10 9 10 8 5 3 3 4 4 5 5 5 5 4 4 5 5 5 5 5 5 4 4 6 5 4 4 5 5 5 5 5 5 5 5 6
4 5 6 8 9 11 7 7 8 11 9 4 3 4 4 4 4 5 5 5 5 5 5 5 6 5 5 5 4 4 5 5 5 4 5 5 5 5 6 6 5 6 6 6
2 3 6 6 2 7 7 6 8 6 5 4 5 4 3 3 4 4 4 4 4 4 5 5 4 5 5 4 4 4 5 5 5 5 5 5 4 6 6 5 5 6 6 7
2 3 8 8 4 5 6 5 6 7 5 3 2 1 3 3 3 4 4 4 5 5 5 4 5 4 4 4 4 4 5 6 5 5 5 5 6 6 6 5 6 6 5 6
3 4 6 5 2 2 4 4 4 6 5 4 4 1 5 4 2 3 4 4 4 4 3 4 5 3 3 5 5 6 6 6 6 5 6 6 7 6 5 5 6 6 6 6
6 6 9 7 3 4 4 6 4 5 5 5 6 6 4 3 4 4 4 4 4 3 3 5 5 3 4 5 6 7 6 6 5 5 6 6 6 5 5 5 5 5 6 6
6 7 9 5 7 7 7 2 4 4 4 5 5 4 4 4 4 4 4 4 3 3 5 5 4 3 5 7 7 6 5 6 6 6 5 5 5 5 4 5 5 5 5 6
10 10 5 5 7 5 4 4 4 4 4 4 4 5 4 4 4 5 5 5 4 4 5 5 4 4 6 7 6 5 5 6 6 6 5 5 5 5 4 4 5 5 5 6
7 9 7 6 5 4 4 5 5 5 5 4 5 5 5 5 4 4 4 4 4 4 5 6 6 5 7 7 5 5 6 6 6 5 5 5 4 5 5 5 6 6 6 7
7 7 4 5 7 6 5 4 4 4 5 6 6 6 5 5 5 5 4 4 4 5 6 8 7 7 7 6 5 5 6 6 6 5 5 5 5 6 7 7 8 8 7 7
9 8 7 7 7 6 6 7 6 6 5 5 5 6 5 5 5 4 5 5 5 6 7 7 7 8 7 6 5 5 6 6 5 5 5 5 5 6 9 10 13 14 13 11
9 6 6 6 5 6 7 7 7 7 6 5 4 4 4 4 4 4 5 6 6 7 7 8 8 8 8 6 5 6 7 7 5 5 5 5 5 5 6 7 10 12 13 14
8 5 6 6 6 6 6 6 5 4 4 4 4 3 4 4 5 6 7 7 7 7 8 8 8 9 8 6 6 7 7 7 7 6 6 6 6 6 6 6 6 6 8 12
8 8 8 5 5 5 4 4 3 3 3 3 3 4 4 5 6 7 7 7 7 7 8 8 8 10 7 6 6 7 6 6 6 6 6 6 5 5 6 6 7 6 5 7
6 5 6 5 6 5 4 4 5 5 4 4 4 5 6 6 7 8 8 6 6 8 9 9 9 9 7 6 6 6 6 9 8 6 5 5 5 6 6 6 6 6 7 6
6 6 6 5 6 6 6 6 6 6 5 6 6 6 5 6 7 8 8 7 7 9 10 9 10 9 7 7 7 6 6 7 9 6 6 6 6 6 6 6 7 7 7 7
10 10 8 7 6 6 6 6 6 6 6 6 5 5 5 6 8 9 9 8 8 9 10 9 9 8 7 7 6 5 5 6 5 6 6 6 6 6 6 7 7 8 7 7
7 7 7 6 6 6 6 6 6 5 5 5 5 6 7 7 8 9 8 8 9 11 10 8 9 8 7 8 7 5 5 6 6 6 6 8 8 6 6 7 7 7 7 6
4 4 5 5 4 4 5 5 5 5 5 5 5 7 8 9 8 8 8 9 9 8 8 9 8 7 7 7 8 5 6 6 7 6 6 6 6 7 6 7 7 7 7 6
3 3 3 4 4 4 5 5 5 6 6 5 6 8 9 10 8 7 7 9 9 8 8 11 7 6 6 7 8 5 6 6 7 7 7 7 7 7 7 7 7 6 6 6
3 3 4 4 4 4 4 4 5 6 6 7 7 8 9 10 9 8 9 9 10 11 8 6 6 8 9 10 6 6 6 7 7 7 7 7 7 7 7 7 6 6 6 6
3 4 4 5 5 5 5 5 6 6 7 8 9 9 9 9 7 7 9 7 6 10 8 7 9 13 14 8 5 6 7 7 7 7 7 7 7 7 7 7 6 6 6 6
4 4 5 4 3 4 6 7 6 6 7 8 9 9 9 8 8 7 8 11 12 13 8 10 14 15 13 6 6 6 7 7 7 7 7 7 7 7 7 6 6 6 6 6
5 5 5 5 5 6 7 7 7 7 8 7 9 9 8 7 8 8 7 8 12 13 8 10 14 14 9 6 6 7 7 7 7 7 7 7 7 6 6 6 6 6 5 5
5 6 6 7 7 6 6 5 6 7 7 7 8 7 6 6 8 8 7 8 10 12 9 7 8 9 6 6 7 7 7 7 8 7 7 7 7 7 6 6 7 6 5 5
5 5 5 6 6 6 6 6 7 8 7 8 9 8 7 7 6 7 8 7 7 7 7 7 6 6 6 6 7 7 6 6 6 6 6 6 6 6 6 7 6 5 4 4
Wind_Direction
253 260 240 237 237 214 204 202 208 235 233 248 241 232 237 240 237 237 247 247 242 243 250 257 260 258 252 253 251 239 236 246 250 251 245 243 241 237 231 224 226 226 227 231
298 288 262 259 243 227 224 221 231 251 264 253 246 217 228 237 233 238 248 248 249 251 255 259 259 258 256 255 252 238 240 250 256 255 250 244 242 238 232 231 229 225 228 229
277 315 336 273 236 204 206 209 200 228 243 245 235 229 231 235 233 237 248 249 250 253 255 260 261 256 252 252 250 242 246 256 258 253 252 250 244 238 234 232 227 230 233 229
279 347 252 249 229 182 197 230 212 220 235 224 229 222 217 209 211 241 251 252 255 254 259 264 263 264 260 257 251 248 251 255 257 255 256 256 248 242 238 230 228 232 235 233
192 262 278 287 243 174 184 254 220 212 224 221 178 83 290 245 211 226 240 247 246 248 252 261 268 268 270 269 262 261 260 259 257 252 255 256 251 248 240 229 233 233 233 231
188 231 247 251 204 162 122 265 230 185 194 191 140 213 262 252 249 258 264 256 254 263 267 271 274 272 269 272 270 266 263 261 258 250 249 252 253 250 239 230 236 236 239 233
208 237 264 253 195 128 172 243 199 180 188 183 194 216 238 263 266 264 270 270 270 273 271 271 277 272 267 272 267 264 266 267 264 255 249 250 252 245 239 235 237 238 244 243
184 212 253 213 149 184 215 207 175 185 193 201 220 240 254 265 269 275 280 281 275 271 278 280 277 270 274 274 271 273 270 269 268 263 257 254 249 249 238 229 236 244 248 257
197 215 245 190 200 217 182 185 197 197 211 205 221 240 251 259 267 271 269 272 271 268 283 289 280 260 267 274 280 281 277 273 272 269 261 252 244 245 242 231 234 243 243 254
236 255 250 236 234 230 203 203 206 200 204 205 226 241 253 262 268 276 276 274 273 279 285 288 285 274 263 273 278 276 276 277 275 271 268 259 247 237 233 232 236 241 243 249
243 260 273 251 225 220 220 217 215 215 213 217 224 239 243 255 266 269 276 274 267 267 271 277 283 282 278 275 273 273 274 275 275 268 265 264 256 243 239 234 229 235 240 239
231 221 208 231 224 210 208 217 217 217 222 224 217 231 243 252 256 262 270 275 274 272 272 278 283 283 282 273 262 262 273 274 271 271 268 263 268 278 256 247 254 250 247 244
235 230 223 234 228 211 210 215 215 214 217 229 233 225 232 246 256 260 268 271 271 272 273 277 281 281 280 273 261 255 260 266 269 266 264 263 260 262 279 276 259 256 254 252
231 227 240 231 224 216 211 212 207 209 216 219 226 232 236 246 260 266 268 267 271 276 276 275 278 278 277 269 262 260 260 262 262 260 257 257 254 252 253 263 275 274 262 259
231 222 226 227 215 211 203 189 191 218 229 239 232 240 245 252 262 268 271 275 279 280 277 276 277 279 278 268 263 262 263 262 259 258 256 254 253 251 251 252 258 267 273 269
230 228 223 216 215 213 203 198 208 228 234 240 248 251 251 254 262 271 275 274 275 279 280 278 275 277 277 268 265 264 261 262 262 260 259 257 252 251 251 251 254 256 258 260
205 220 218 222 224 222 216 215 219 229 236 244 249 256 263 271 278 281 282 277 266 267 271 270 272 277 273 262 257 260 261 265 264 263 256 253 252 252 252 251 254 256 256 252
215 215 208 208 214 222 227 226 226 231 237 242 252 259 264 268 274 281 285 288 287 283 275 264 264 269 267 261 256 255 256 260 257 256 258 256 257 254 254 254 254 257 263 260
218 215 212 211 209 210 220 229 234 236 242 243 248 257 261 263 266 273 281 284 284 286 284 275 274 271 269 266 265 255 254 259 263 261 258 263 267 258 253 254 256 256 257 256
216 212 211 215 213 211 222 233 237 246 249 243 251 262 270 271 270 272 274 273 265 261 271 280 280 272 267 266 264 254 250 255 260 264 261 257 259 262 258 257 256 257 255 253
218 216 213 217 229 234 229 228 232 249 257 249 249 259 267 274 274 269 271 282 278 265 266 273 272 267 266 266 265 255 251 254 257 260 261 261 262 263 262 259 259 258 256 254
221 221 229 230 235 251 253 243 242 250 260 261 259 260 267 275 276 271 257 257 271 279 278 269 266 267 270 273 260 254 255 256 259 260 260 259 260 262 263 260 259 257 254 251
231 232 234 236 238 249 262 257 250 251 256 261 263 264 264 266 265 267 280 270 265 275 275 265 268 274 279 276 258 256 257 258 259 259 259 259 258 258 259 259 258 255 253 249
243 243 244 247 247 257 267 267 261 257 257 262 261 259 260 269 272 254 252 272 279 280 274 271 276 280 283 269 258 259 259 258 259 260 259 258 257 256 256 256 256 254 249 245
244 247 251 250 252 256 258 265 270 268 267 268 267 263 254 244 253 268 267 268 275 282 277 276 279 282 278 260 256 257 257 256 258 259 256 256 254 254 253 251 251 250 246 243
247 248 249 246 247 254 258 259 263 267 268 274 277 271 263 255 251 258 265 266 267 275 274 271 272 275 266 259 256 255 255 261 265 261 256 255 253 250 250 250 247 244 242 238
255 257 260 266 263 251 247 249 256 263 262 262 273 276 271 268 265 263 264 266 268 268 268 268 267 263 262 261 259 256 255 253 252 253 254 253 250 248 247 246 244 240 234 229
Height
1521 1519 1519 1518 1517 1517 1520 1521 1522 1515 1512 1504 1502 1502 1501 1501 1501 1501 1501 1501 1501 1500 1500 1499 1498 1497 1496 1495 1494 1492 1491 1490 1489 1488 1487 1485 1484 1484 1483 1482 1481 1481 1480 1479
1523 1517 1517 1516 1512 1512 1513 1513 1512 1510 1507 1499 1499 1499 1499 1499 1499 1499 1499 1499 1498 1498 1497 1496 1495 1493 1492 1491 1490 1489 1487 1486 1485 1483 1482 1481 1480 1479 1478 1477 1476 1476 1475 1474
1525 1521 1517 1513 1503 1504 1505 1503 1504 1505 1500 1497 1498 1497 1497 1497 1497 1496 1496 1496 1496 1495 1494 1493 1491 1490 1488 1487 1486 1485 1483 1482 1480 1479 1477 1476 1475 1474 1473 1472 1471 1470 1470 1469
1527 1522 1518 1500 1493 1495 1497 1496 1496 1495 1494 1494 1495 1495 1495 1495 1494 1494 1494 1493 1493 1492 1490 1489 1488 1486 1484 1483 1481 1480 1479 1477 1476 1474 1473 1472 1470 1469 1468 1467 1466 1465 1465 1464
1527 1524 1512 1497 1492 1492 1495 1493 1491 1491 1492 1492 1492 1493 1493 1492 1492 1492 1491 1491 1490 1488 1487 1485 1484 1482 1480 1479 1477 1476 1474 1473 1471 1470 1468 1467 1465 1464 1463 1462 1461 1460 1459 1458
1525 1519 1506 1491 1489 1488 1492 1492 1487 1487 1488 1489 1490 1494 1491 1489 1489 1489 1488 1487 1486 1484 1483 1481 1480 1478 1476 1475 1473 1471 1470 1468 1467 1465 1464 1462 1461 1459 1458 1456 1455 1454 1453 1453
1522 1518 1504 1490 1487 1489 1496 1489 1484 1484 1485 1486 1487 1488 1487 1486 1486 1485 1484 1483 1482 1480 1479 1477 1476 1474 1472 1471 1469 1467 1465 1464 1463 1461 1459 1457 1456 1454 1453 1451 1450 1449 1448 1447
1517 1516 1502 1484 1486 1488 1485 1482 1482 1482 1483 1484 1484 1484 1483 1483 1482 1481 1480 1479 1478 1476 1475 1474 1472 1470 1468 1466 1465 1463 1461 1459 1458 1456 1454 1452 1451 1449 1447 1446 1444 1443 1442 1441
1498 1491 1482 1480 1479 1479 1480 1480 1480 1480 1481 1481 1481 1480 1480 1479 1478 1477 1476 1475 1474 1472 1471 1469 1468 1466 1464 1462 1460 1458 1456 1454 1452 1450 1449 1447 1445 1443 1442 1440 1439 1437 1436 1435
1490 1481 1477 1477 1477 1477 1477 1477 1477 1478 1478 1478 1477 1477 1476 1475 1474 1473 1472 1471 1469 1468 1466 1465 1464 1462 1460 1458 1456 1453 1451 1449 1447 1445 1443 1441 1440 1438 1436 1434 1433 1431 1430 1429
1482 1476 1474 1473 1473 1473 1474 1474 1474 1474 1474 1474 1473 1472 1472 1471 1470 1469 1468 1467 1466 1464 1462 1461 1459 1457 1455 1453 1450 1448 1446 1443 1441 1439 1437 1435 1434 1432 1430 1429 1428 1426 1425 1424
1473 1468 1469 1468 1468 1469 1470 1470 1470 1470 1469 1469 1469 1468 1468 1467 1466 1465 1464 1463 1462 1460 1458 1457 1455 1452 1451 1448 1445 1443 1440 1438 1436 1433 1431 1429 1427 1426 1424 1423 1422 1420 1419 1418
1463 1463 1464 1463 1464 1465 1465 1465 1465 1465 1465 1465 1465 1464 1464 1463 1462 1462 1460 1459 1458 1456 1454 1452 1450 1447 1445 1443 1440 1437 1435 1432 1430 1428 1425 1423 1421 1419 1417 1417 1416 1414 1413 1411
1458 1459 1458 1458 1459 1460 1460 1460 1460 1460 1460 1461 1460 1460 1460 1459 1458 1458 1456 1455 1453 1451 1449 1447 1444 1442 1440 1437 1434 1432 1429 1427 1424 1422 1420 1418 1416 1414 1412 1410 1408 1407 1407 1405
1453 1454 1453 1453 1454 1455 1455 1455 1456 1456 1456 1456 1456 1456 1455 1455 1454 1453 1452 1450 1448 1446 1444 1441 1439 1436 1434 1431 1428 1426 1423 1421 1419 1416 1414 1412 1410 1408 1406 1404 1402 1401 1400 1399
1447 1448 1448 1448 1449 1449 1450 1450 1451 1451 1452 1452 1452 1451 1451 1450 1449 1448 1446 1445 1443 1440 1438 1435 1432 1430 1428 1425 1422 1419 1417 1415 1412 1410 1408 1406 1404 1402 1400 1398 1397 1395 1394 1393
1442 1442 1442 1443 1444 1444 1445 1446 1447 1447 1448 1448 1447 1447 1446 1445 1444 1442 1441 1439 1437 1434 1432 1429 1426 1424 1421 1419 1416 1413 1410 1408 1406 1404 1401 1400 1398 1396 1394 1392 1391 1389 1388 1387
1435 1436 1437 1438 1439 1440 1441 1442 1442 1443 1443 1443 1443 1442 1441 1440 1438 1436 1435 1433 1430 1428 1425 1423 1420 1417 1414 1412 1409 1406 1404 1401 1399 1397 1395 1393 1391 1390 1388 1386 1385 1383 1382 1381
1430 1431 1433 1434 1435 1436 1437 1437 1438 1438 1438 1438 1438 1437 1435 1434 1432 1430 1428 1426 1423 1420 1418 1416 1413 1410 1407 1405 1403 1400 1397 1395 1392 1390 1389 1387 1385 1383 1382 1380 1379 1377 1376 1374
1427 1428 1429 1430 1431 1432 1432 1433 1433 1433 1433 1433 1432 1431 1430 1428 1426 1424 1421 1419 1416 1414 1411 1408 1406 1403 1401 1398 1396 1394 1391 1389 1386 1384 1383 1381 1379 1377 1376 1374 1373 1371 1370 1368
1424 1425 1426 1427 1427 1428 1428 1428 1428 1428 1428 1428 1427 1425 1423 1421 1420 1417 1414 1411 1409 1407 1404 1401 1399 1396 1394 1392 1389 1387 1385 1382 1380 1378 1376 1374 1373 1371 1369 1368 1366 1365 1364 1362
1422 1422 1423 1424 1424 1424 1424 1424 1424 1424 1423 1422 1420 1419 1417 1415 1413 1410 1407 1405 1402 1400 1397 1394 1392 1390 1387 1385 1382 1380 1378 1376 1374 1372 1370 1368 1366 1364 1363 1362 1360 1359 1358 1356
1419 1420 1420 1420 1420 1420 1419 1419 1419 1418 1417 1416 1414 1412 1410 1408 1406 1403 1400 1398 1396 1393 1390 1388 1385 1383 1380 1378 1375 1373 1371 1369 1367 1365 1363 1361 1360 1358 1357 1355 1354 1353 1351 1351
1416 1416 1416 1416 1415 1415 1414 1413 1413 1412 1410 1409 1407 1405 1403 1400 1398 1396 1393 1391 1388 1386 1383 1381 1378 1376 1373 1370 1368 1366 1364 1362 1360 1358 1357 1355 1353 1352 1350 1349 1348 1347 1346 1345
1412 1411 1411 1411 1410 1409 1408 1407 1406 1405 1403 1401 1399 1398 1396 1393 1391 1388 1386 1383 1381 1378 1375 1373 1371 1368 1365 1363 1361 1359 1357 1355 1353 1352 1350 1349 1347 1346 1344 1343 1342 1341 1340 1339
1407 1406 1405 1405 1404 1403 1402 1400 1399 1397 1396 1393 1391 1390 1388 1386 1383 1381 1378 1376 1373 1371 1368 1365 1363 1360 1358 1355 1353 1351 1350 1348 1347 1345 1344 1342 1341 1340 1338 1337 1336 1335 1334 1334
1401 1400 1399 1398 1397 1396 1395 1393 1391 1390 1388 1386 1383 1381 1380 1378 1375 1373 1370 1368 1365 1363 1360 1358 1355 1353 1350 1348 1346 1344 1343 1341 1340 1338 1337 1336 1335 1333 1332 1331 1331 1330 1329 1329